GW4394 Weather Reports


time (UTC)temp
C
wind
direction
speed
KPH
gust
KPH
rain 1hr
cm
rain 24hr
cm
rain mn
cm
humidity
%
barometer
mb
20260510144208 18 205 0.0 3.2 0.00 0.00 0.00 67 1017.5
20260510143702 18 160 0.0 1.6 0.00 0.00 0.00 70 1017.3
20260510143159 18 238 3.2 3.2 0.00 0.00 0.00 69 1017.3
20260510142655 18 329 6.4 9.7 0.00 0.00 0.00 68 1017.4
20260510142152 18 164 0.0 0.0 0.00 0.00 0.00 71 1017.3
20260510141649 17 115 0.0 4.8 0.00 0.00 0.00 70 1017.2
20260510141147 17 14 0.0 4.8 0.00 0.00 0.00 69 1017.2
20260510140644 17 170 0.0 9.7 0.00 0.00 0.00 70 1017.3
20260510140142 17 204 0.0 6.4 0.00 0.00 0.00 70 1017.2
20260510135638 17 132 0.0 3.2 0.00 0.00 0.00 72 1016.8
20260510135134 17 170 1.6 6.4 0.00 0.00 0.00 71 1016.9
20260510134631 17 133 1.6 3.2 0.00 0.00 0.00 71 1016.8
20260510134129 17 125 0.0 1.6 0.00 0.00 0.00 71 1016.7
20260510133625 17 56 0.0 6.4 0.00 0.00 0.00 71 1016.8
20260510133120 17 189 0.0 3.2 0.00 0.00 0.00 72 1016.5
20260510132617 17 94 0.0 0.0 0.00 0.00 0.00 73 1016.5
20260510132115 17 165 0.0 0.0 0.00 0.00 0.00 74 1016.2
20260510131612 16 200 0.0 3.2 0.00 0.00 0.00 73 1016.4
20260510131109 16 202 0.0 0.0 0.00 0.00 0.00 75 1016.1
20260510130605 16 119 0.0 0.0 0.00 0.00 0.00 77 1016.0
20260510125559 16 83 0.0 9.7 0.00 0.00 0.00 76 1016.1
20260510125055 16 32 0.0 1.6 0.00 0.00 0.00 78 1015.9
20260510124552 16 83 1.6 3.2 0.00 0.00 0.00 78 1015.8
20260510124049 15 142 0.0 0.0 0.00 0.00 0.00 79 1015.8
20260510123544 15 167 0.0 0.0 0.00 0.00 0.00 79 1015.6
20260510123041 15 117 0.0 0.0 0.00 0.00 0.00 79 1015.4
20260510122537 15 172 0.0 1.6 0.00 0.00 0.00 79 1015.2
20260510122033 15 65 0.0 0.0 0.00 0.00 0.00 80 1015.2
20260510121530 15 172 0.0 3.2 0.00 0.00 0.00 80 1015.5
20260510121027 15 138 0.0 6.4 0.00 0.00 0.00 81 1015.3
20260510120525 15 159 0.0 0.0 0.00 0.00 0.00 82 1015.1
20260510120021 15 157 0.0 3.2 0.00 0.00 0.00 81 1015.0
20260510115517 15 68 0.0 0.0 0.00 0.00 0.00 81 1015.1
20260510115014 15 199 0.0 0.0 0.00 0.00 0.00 81 1015.1
20260510114510 15 151 0.0 0.0 0.00 0.00 0.00 81 1015.1
20260510114006 15 53 0.0 0.0 0.00 0.00 0.00 81 1014.9
20260510113501 15 118 0.0 0.0 0.00 0.00 0.00 81 1014.6
20260510112959 15 167 0.0 0.0 0.00 0.00 0.00 81 1014.4
20260510112456 15 153 0.0 0.0 0.00 0.00 0.00 80 1014.4
20260510111952 15 169 0.0 0.0 0.00 0.00 0.00 80 1014.3
20260510111448 15 166 0.0 0.0 0.00 0.00 0.00 80 1014.2
20260510110944 14 85 0.0 0.0 0.00 0.00 0.00 81 1014.3
20260510110441 14 175 0.0 0.0 0.00 0.00 0.00 81 1014.1
20260510105937 14 179 0.0 0.0 0.00 0.00 0.00 82 1014.1
20260510105432 14 179 0.0 0.0 0.00 0.00 0.00 81 1014.1
20260510104928 14 165 0.0 0.0 0.00 0.00 0.00 83 1014.1
20260510104425 13 140 0.0 0.0 0.00 0.00 0.00 88 1014.0
20260510103921 13 147 0.0 0.0 0.00 0.00 0.00 90 1014.3
20260510103419 13 146 0.0 0.0 0.00 0.00 0.00 91 1014.0
20260510102914 13 133 0.0 0.0 0.00 0.00 0.00 91 1014.2
20260510102410 13 169 0.0 0.0 0.00 0.00 0.00 91 1014.2
20260510101907 13 169 0.0 0.0 0.00 0.00 0.00 91 1014.1
20260510101405 13 169 0.0 0.0 0.00 0.00 0.00 91 1014.2
20260510100902 13 169 0.0 0.0 0.00 0.00 0.00 91 1013.9
20260510100359 13 169 0.0 0.0 0.00 0.00 0.00 91 1013.8
20260510095855 13 169 0.0 0.0 0.00 0.00 0.00 90 1013.4
20260510095350 13 170 0.0 0.0 0.00 0.00 0.00 90 1013.6
20260510094850 13 170 0.0 0.0 0.00 0.00 0.00 90 1013.7
20260510094345 13 170 0.0 0.0 0.00 0.00 0.00 90 1013.6
20260510093842 13 170 0.0 0.0 0.00 0.00 0.00 90 1013.3
20260510093337 13 170 0.0 0.0 0.00 0.00 0.00 90 1013.4
20260510092834 13 170 0.0 0.0 0.00 0.00 0.00 89 1013.6
20260510092330 13 170 0.0 0.0 0.00 0.00 0.00 89 1013.2
20260510091826 13 170 0.0 0.0 0.00 0.00 0.00 89 1013.0
20260510091323 13 170 0.0 0.0 0.00 0.00 0.00 89 1013.2
20260510090819 13 170 0.0 0.0 0.00 0.00 0.00 88 1013.1
20260510090317 13 170 0.0 0.0 0.00 0.00 0.00 87 1013.1
20260510085812 14 170 0.0 0.0 0.00 0.00 0.00 86 1013.1
20260510085307 14 170 0.0 0.0 0.00 0.00 0.00 85 1012.9
20260510084803 14 170 0.0 0.0 0.00 0.00 0.00 85 1013.0
20260510084300 14 175 0.0 0.0 0.00 0.00 0.00 85 1012.9
20260510083756 14 175 0.0 0.0 0.00 0.00 0.00 84 1012.8
20260510083253 15 176 0.0 0.0 0.00 0.00 0.00 84 1012.8
20260510082749 15 165 0.0 0.0 0.00 0.00 0.00 83 1012.6
20260510082246 15 143 0.0 0.0 0.00 0.00 0.00 83 1012.7
20260510081745 15 178 0.0 0.0 0.00 0.00 0.00 83 1012.6
20260510081241 15 156 0.0 0.0 0.00 0.00 0.00 82 1012.6
20260510080737 15 155 0.0 0.0 0.00 0.00 0.00 81 1013.1
20260510080232 15 156 0.0 0.0 0.00 0.00 0.00 82 1013.2
20260510075729 14 144 0.0 0.0 0.00 0.00 0.00 84 1013.1
20260510075227 13 170 0.0 0.0 0.00 0.00 0.00 86 1013.0
20260510074724 13 169 0.0 0.0 0.00 0.00 0.00 85 1013.1
20260510074220 13 176 0.0 0.0 0.00 0.00 0.00 86 1013.1
20260510073717 13 177 0.0 0.0 0.00 0.00 0.00 85 1012.8
20260510073212 13 176 0.0 0.0 0.00 0.00 0.00 85 1012.9
20260510072708 13 177 0.0 0.0 0.00 0.00 0.00 83 1012.8
20260510072205 14 171 0.0 0.0 0.00 0.00 0.00 82 1012.8
20260510071702 13 171 0.0 0.0 0.00 0.00 0.00 83 1012.8
20260510071159 13 172 0.0 0.0 0.00 0.00 0.00 82 1012.7
20260510070656 14 172 0.0 0.0 0.00 0.00 0.00 82 1012.8
20260510070154 14 172 0.0 0.0 0.00 0.00 0.00 81 1012.6
20260510065649 14 172 0.0 0.0 0.00 0.00 0.00 80 1012.6
20260510065145 15 172 0.0 0.0 0.00 0.00 0.00 80 1012.8
20260510064642 15 173 0.0 0.0 0.00 0.00 0.00 78 1012.6
20260510064139 15 173 0.0 0.0 0.00 0.00 0.00 78 1012.7
20260510063636 15 173 0.0 0.0 0.00 0.00 0.00 77 1012.7
20260510063132 16 173 0.0 0.0 0.00 0.00 0.00 76 1012.7
20260510062628 16 172 0.0 0.0 0.00 0.00 0.00 74 1012.7
20260510062124 16 173 0.0 0.0 0.00 0.00 0.00 73 1012.7
20260510061620 17 172 0.0 0.0 0.00 0.00 0.00 70 1012.7
20260510061118 16 166 0.0 0.0 0.00 0.00 0.00 73 1012.8
20260510060613 15 121 0.0 0.0 0.00 0.00 0.00 76 1013.0
20260510060110 15 121 0.0 0.0 0.00 0.00 0.00 81 1012.7
20260510055606 15 176 0.0 0.0 0.00 0.00 0.00 81 1012.4
20260510055105 15 177 0.0 0.0 0.00 0.00 0.00 81 1012.4
20260510054600 15 177 0.0 0.0 0.00 0.00 0.00 81 1012.4
20260510054055 15 177 0.0 0.0 0.00 0.00 0.00 81 1012.4
20260510053555 15 177 0.0 0.0 0.00 0.00 0.00 81 1012.6
20260510053052 15 177 0.0 0.0 0.00 0.00 0.00 81 1012.4
20260510052548 15 177 0.0 0.0 0.00 0.00 0.00 81 1012.6
20260510052044 15 177 0.0 0.0 0.00 0.00 0.00 80 1012.5
20260510051540 15 178 0.0 0.0 0.00 0.00 0.00 80 1012.6
20260510051036 15 177 0.0 0.0 0.00 0.00 0.00 80 1012.5
20260510050534 16 170 0.0 0.0 0.00 0.00 0.00 79 1012.4
20260510050031 15 170 0.0 0.0 0.00 0.00 0.00 80 1012.2
20260510045528 15 170 0.0 0.0 0.00 0.00 0.00 80 1012.1
20260510045024 15 170 0.0 0.0 0.00 0.00 0.00 80 1012.2
20260510044521 15 170 0.0 0.0 0.00 0.00 0.00 80 1012.2
20260510044019 15 170 0.0 0.0 0.00 0.00 0.00 81 1012.3
20260510043514 15 170 0.0 0.0 0.00 0.00 0.00 80 1012.3
20260510043009 15 170 0.0 0.0 0.00 0.00 0.00 80 1012.2
20260510042503 15 170 0.0 0.0 0.00 0.00 0.00 81 1012.4
20260510041958 15 170 0.0 0.0 0.00 0.00 0.00 80 1012.3
20260510041456 15 170 0.0 0.0 0.00 0.00 0.00 80 1012.4
20260510040954 15 170 0.0 0.0 0.00 0.00 0.00 79 1012.1
20260510040450 15 170 0.0 0.0 0.00 0.00 0.00 78 1011.9
20260510035945 15 170 0.0 0.0 0.00 0.00 0.00 78 1011.9
20260510035443 15 170 0.0 0.0 0.00 0.00 0.00 77 1011.9
20260510034942 16 170 0.0 0.0 0.00 0.00 0.00 74 1011.8
20260510034441 16 171 0.0 0.0 0.00 0.00 0.00 73 1012.0
20260510033937 15 170 0.0 0.0 0.00 0.00 0.00 71 1011.9
20260510033433 16 170 0.0 0.0 0.00 0.00 0.00 71 1012.0
20260510032930 16 162 0.0 0.0 0.00 0.00 0.00 70 1011.9
20260510032427 16 181 0.0 0.0 0.00 0.00 0.00 72 1011.8
20260510031922 16 181 0.0 0.0 0.00 0.00 0.00 72 1011.7
20260510031418 16 181 0.0 0.0 0.00 0.00 0.00 71 1011.6
20260510030913 16 181 0.0 0.0 0.00 0.00 0.00 71 1011.5
20260510030409 16 181 0.0 0.0 0.00 0.00 0.00 69 1011.6
20260510025907 16 181 0.0 0.0 0.00 0.00 0.00 70 1011.4
20260510025404 16 181 0.0 0.0 0.00 0.00 0.00 69 1011.5
20260510024901 17 181 0.0 0.0 0.00 0.00 0.00 68 1011.4
20260510024358 17 181 0.0 0.0 0.00 0.00 0.00 67 1011.2
20260510023854 17 181 0.0 0.0 0.00 0.00 0.00 66 1011.0
20260510023350 17 181 0.0 0.0 0.00 0.00 0.00 67 1010.6
20260510022848 17 181 0.0 0.0 0.00 0.00 0.00 65 1010.6
20260510022347 17 181 0.0 0.0 0.00 0.00 0.00 64 1010.5
20260510021846 18 181 0.0 0.0 0.00 0.00 0.00 64 1010.5
20260510021344 18 181 0.0 0.0 0.00 0.00 0.00 65 1010.6
20260510020841 18 181 0.0 0.0 0.00 0.00 0.00 60 1010.4
20260510020340 18 180 0.0 0.0 0.00 0.00 0.00 59 1010.3
20260510015836 18 180 0.0 0.0 0.00 0.00 0.00 60 1010.1
20260510015332 19 180 0.0 0.0 0.00 0.00 0.00 59 1010.1
20260510014828 19 180 0.0 0.0 0.00 0.00 0.00 58 1009.8
20260510014325 20 180 0.0 0.0 0.00 0.00 0.00 57 1009.8
20260510013821 20 180 0.0 0.0 0.00 0.00 0.00 55 1009.8
20260510013317 20 180 0.0 0.0 0.00 0.00 0.00 54 1009.9
20260510012812 20 180 0.0 0.0 0.00 0.00 0.00 54 1009.5
20260510012307 20 180 0.0 0.0 0.00 0.00 0.00 51 1009.7
20260510011801 21 180 0.0 0.0 0.00 0.00 0.00 52 1009.6
20260510011257 21 180 0.0 0.0 0.00 0.00 0.00 51 1009.6
20260510010754 22 180 0.0 0.0 0.00 0.00 0.00 49 1009.7
20260510010250 22 180 0.0 0.0 0.00 0.00 0.00 48 1009.5
20260510005748 22 180 0.0 0.0 0.00 0.00 0.00 48 1009.6
20260510005244 23 180 0.0 0.0 0.00 0.00 0.00 47 1009.4
20260510004742 23 180 0.0 0.0 0.00 0.00 0.00 45 1009.3
20260510004239 23 180 0.0 0.0 0.00 0.00 0.00 46 1009.3
20260510003736 23 180 0.0 0.0 0.00 0.00 0.00 44 1009.3
20260510003233 24 180 0.0 0.0 0.00 0.00 0.00 44 1009.3
20260510002731 25 180 0.0 0.0 0.00 0.00 0.00 43 1009.2
20260510002229 24 168 0.0 0.0 0.00 0.00 0.00 42 1009.3
20260510001726 25 168 0.0 0.0 0.00 0.00 0.00 43 1009.2
20260510001224 25 168 0.0 0.0 0.00 0.00 0.00 43 1009.3
20260510000719 25 171 0.0 0.0 0.00 0.00 0.00 40 1009.2
20260510000212 25 176 0.0 0.0 0.00 0.00 0.00 41 1009.4
20260509235708 25 153 0.0 0.0 0.00 0.00 0.00 40 1009.3
20260509235204 25 169 0.0 0.0 0.00 0.00 0.00 39 1009.4
20260509234701 25 162 0.0 0.0 0.00 0.00 0.00 37 1009.3
20260509234158 25 169 0.0 0.0 0.00 0.00 0.00 38 1009.3
20260509233656 25 149 0.0 0.0 0.00 0.00 0.00 38 1009.1
20260509233153 25 169 0.0 0.0 0.00 0.00 0.00 38 1009.2
20260509232649 25 161 0.0 1.6 0.00 0.00 0.00 37 1009.2
20260509232146 26 164 0.0 1.6 0.00 0.00 0.00 37 1009.1
20260509231643 26 174 0.0 0.0 0.00 0.00 0.00 37 1009.3
20260509231140 26 165 0.0 0.0 0.00 0.00 0.00 38 1009.3
20260509230637 26 171 0.0 0.0 0.00 0.00 0.00 37 1009.2
20260509230134 26 180 0.0 0.0 0.00 0.00 0.00 35 1009.2
20260509225630 26 178 0.0 0.0 0.00 0.00 0.00 37 1009.2
20260509225125 26 156 0.0 0.0 0.00 0.00 0.00 33 1009.1
20260509224620 26 169 0.0 0.0 0.00 0.00 0.00 34 1009.2
20260509224118 26 167 0.0 0.0 0.00 0.00 0.00 31 1009.1
20260509223614 27 171 0.0 0.0 0.00 0.00 0.00 31 1009.2
20260509223112 27 162 0.0 1.6 0.00 0.00 0.00 32 1009.2
20260509222608 27 102 0.0 0.0 0.00 0.00 0.00 30 1009.4
20260509222104 27 190 0.0 0.0 0.00 0.00 0.00 32 1009.3
20260509221559 27 166 0.0 0.0 0.00 0.00 0.00 32 1009.2
20260509221056 27 164 0.0 0.0 0.00 0.00 0.00 34 1009.2
20260509220551 27 169 0.0 0.0 0.00 0.00 0.00 33 1009.2
20260509220048 28 147 0.0 0.0 0.00 0.00 0.00 31 1009.2
20260509215543 28 136 0.0 1.6 0.00 0.00 0.00 31 1009.1
20260509215041 28 195 0.0 0.0 0.00 0.00 0.00 32 1009.0
20260509214538 28 172 0.0 0.0 0.00 0.00 0.00 32 1009.2
20260509214035 28 193 0.0 0.0 0.00 0.00 0.00 31 1009.1
20260509213531 28 175 0.0 0.0 0.00 0.00 0.00 32 1009.2
20260509213028 29 173 0.0 0.0 0.00 0.00 0.00 34 1009.2
20260509212525 28 191 0.0 0.0 0.00 0.00 0.00 37 1009.1
20260509212022 30 117 0.0 0.0 0.00 0.00 0.00 30 1009.2
20260509211518 30 169 0.0 0.0 0.00 0.00 0.00 30 1009.2
20260509211015 29 171 0.0 0.0 0.00 0.00 0.00 31 1009.3
20260509210511 28 215 0.0 0.0 0.00 0.00 0.00 34 1009.2
20260509210008 27 173 0.0 0.0 0.00 0.00 0.00 32 1009.3
20260509205502 28 64 0.0 3.2 0.00 0.00 0.00 30 1009.4
20260509204957 28 185 0.0 0.0 0.00 0.00 0.00 31 1009.4
20260509204455 29 88 0.0 0.0 0.00 0.00 0.00 31 1009.4
20260509203951 29 193 0.0 0.0 0.00 0.00 0.00 31 1009.6
20260509203447 28 180 0.0 0.0 0.00 0.00 0.00 28 1009.4
20260509202945 28 191 0.0 0.0 0.00 0.00 0.00 36 1009.6
20260509202441 27 182 0.0 0.0 0.00 0.00 0.00 30 1009.5
20260509201936 28 45 0.0 1.6 0.00 0.00 0.00 29 1009.6
20260509201431 28 294 0.0 0.0 0.00 0.00 0.00 33 1009.7
20260509200928 28 43 0.0 0.0 0.00 0.00 0.00 36 1009.8
20260509200428 27 192 0.0 1.6 0.00 0.00 0.00 34 1009.9
20260509195925 29 159 0.0 0.0 0.00 0.00 0.00 32 1010.0
20260509195421 28 152 0.0 0.0 0.00 0.00 0.00 32 1010.0
20260509194914 30 253 0.0 0.0 0.00 0.00 0.00 33 1010.1
20260509194411 28 194 0.0 0.0 0.00 0.00 0.00 33 1010.0
20260509193907 28 59 0.0 0.0 0.00 0.00 0.00 30 1010.1
20260509193402 28 175 0.0 0.0 0.00 0.00 0.00 33 1010.1
20260509192858 29 97 0.0 0.0 0.00 0.00 0.00 30 1010.1
20260509192354 28 199 0.0 0.0 0.00 0.00 0.00 37 1010.1
20260509191850 28 59 1.6 4.8 0.00 0.00 0.00 33 1010.1
20260509191345 28 180 0.0 0.0 0.00 0.00 0.00 38 1009.9
20260509190842 27 184 0.0 0.0 0.00 0.00 0.00 35 1010.0
20260509190339 28 182 0.0 0.0 0.00 0.00 0.00 30 1010.2
20260509185836 28 176 0.0 0.0 0.00 0.00 0.00 35 1010.1
20260509185333 27 135 0.0 1.6 0.00 0.00 0.00 33 1010.2
20260509184830 27 70 0.0 4.8 0.00 0.00 0.00 33 1010.1
20260509184327 28 117 0.0 0.0 0.00 0.00 0.00 35 1010.2
20260509183824 27 145 0.0 1.6 0.00 0.00 0.00 34 1010.0
20260509183319 28 52 0.0 0.0 0.00 0.00 0.00 34 1010.0
20260509182815 29 167 0.0 0.0 0.00 0.00 0.00 35 1010.1
20260509182312 28 180 0.0 0.0 0.00 0.00 0.00 37 1010.1
20260509181809 29 96 0.0 0.0 0.00 0.00 0.00 33 1010.0
20260509181307 29 174 0.0 0.0 0.00 0.00 0.00 35 1010.1
20260509180804 28 179 0.0 0.0 0.00 0.00 0.00 36 1010.1
20260509180300 28 56 0.0 0.0 0.00 0.00 0.00 29 1010.2
20260509175756 27 77 0.0 0.0 0.00 0.00 0.00 31 1010.1
20260509175253 27 36 0.0 0.0 0.00 0.00 0.00 32 1010.3
20260509174749 28 129 0.0 0.0 0.00 0.00 0.00 36 1010.2
20260509174244 27 172 0.0 0.0 0.00 0.00 0.00 37 1010.2
20260509173741 26 110 0.0 0.0 0.00 0.00 0.00 37 1010.2
20260509173236 27 161 0.0 0.0 0.00 0.00 0.00 38 1010.2
20260509172733 27 183 0.0 0.0 0.00 0.00 0.00 36 1010.3
20260509172229 28 170 0.0 0.0 0.00 0.00 0.00 39 1010.5
20260509171724 28 154 0.0 0.0 0.00 0.00 0.00 38 1010.6
20260509171221 27 176 0.0 0.0 0.00 0.00 0.00 38 1010.6
20260509170718 27 96 0.0 0.0 0.00 0.00 0.00 39 1010.9
20260509170214 27 167 0.0 0.0 0.00 0.00 0.00 43 1010.6
20260509165713 26 165 0.0 0.0 0.00 0.00 0.00 37 1010.4
20260509165208 26 164 0.0 0.0 0.00 0.00 0.00 40 1010.5
20260509164704 26 69 0.0 1.6 0.00 0.00 0.00 41 1010.4
20260509164200 26 34 1.6 3.2 0.00 0.00 0.00 41 1010.5
20260509163658 26 65 0.0 3.2 0.00 0.00 0.00 39 1010.5
20260509163154 26 137 0.0 0.0 0.00 0.00 0.00 40 1010.5
20260509162652 25 133 0.0 0.0 0.00 0.00 0.00 41 1010.5
20260509162147 26 43 0.0 1.6 0.00 0.00 0.00 41 1010.6
20260509161643 25 92 0.0 1.6 0.00 0.00 0.00 43 1010.4
20260509161138 26 164 0.0 1.6 0.00 0.00 0.00 43 1010.5
20260509160634 25 138 0.0 0.0 0.00 0.00 0.00 45 1010.5
20260509160130 25 131 0.0 1.6 0.00 0.00 0.00 45 1010.7
20260509155626 25 171 0.0 0.0 0.00 0.00 0.00 49 1010.3
20260509155123 25 138 0.0 0.0 0.00 0.00 0.00 49 1010.5
20260509154618 25 119 0.0 0.0 0.00 0.00 0.00 48 1010.5
20260509154116 26 145 0.0 0.0 0.00 0.00 0.00 46 1010.4
20260509153613 25 161 0.0 0.0 0.00 0.00 0.00 48 1010.3
20260509153110 25 165 0.0 0.0 0.00 0.00 0.00 58 1010.3
20260509152605 25 173 0.0 0.0 0.00 0.00 0.00 61 1010.4
20260509152103 24 168 0.0 0.0 0.00 0.00 0.00 55 1010.3
20260509151559 23 147 0.0 0.0 0.00 0.00 0.00 58 1010.3
20260509151057 22 167 0.0 0.0 0.00 0.00 0.00 59 1010.4
20260509150554 23 126 0.0 0.0 0.00 0.00 0.00 60 1010.3
20260509150053 23 195 0.0 0.0 0.00 0.00 0.00 60 1010.5
20260509145548 24 162 0.0 1.6 0.00 0.00 0.00 60 1010.3
20260509145043 23 174 0.0 0.0 0.00 0.00 0.00 63 1010.4
20260509144540 22 161 0.0 0.0 0.00 0.00 0.00 65 1010.2